Location: Boiro
(42.6475°N, 8.8834°W)
Time: 13:09:26
(UTC+01:00)

Transit 4A - Pass Details

Date: 05 December 2021
Orbit: 863 x 981 km, 66.8° (Epoch: 26 January)

Event Time Altitude Azimuth Distance (km) Brightness Sun altitude
Rises 19:26:56 0° 179° (S) 3,438 11.1 -15.1°
Reaches altitude 10° 19:29:38 10° 169° (S) 2,515 10.2 -15.6°
Maximum altitude 19:34:39 31° 109° (ESE) 1,507 8.6 -16.5°
Enters shadow 19:36:23 26° 79° (ENE) 1,673 8.6 -16.8°
